Regional Weather Roundup
Issued by NWS State College, PA

Home | Current Version | Previous Version | Text Only | Print | Product List | Glossary Off
Versions: 1 2 3 4 5 6 7 8 9 10 11 12 13 14 15 16 17 18 19 20 21 22 23 24 25 26 27 28 29 30 31 32 33 34 35 36 37 38 39 40 41 42 43 44 45 46 47 48 49 50

000
ASUS41 KCTP 010003
RWRCTP

REGIONAL WEATHER ROUNDUP
NATIONAL WEATHER SERVICE STATE COLLEGE PA
800 PM EDT THU JUL 31 2014

Note: "fair" indicates few or no clouds below 12,000 feet with no
significant weather and/or obstructions to visibility.

* = STATION THAT DOES NOT REPORT PRECIPITATION /E.G. RAIN...SNOW...ETC/
    THUNDER OR FOG.

PAZ002>004-007>009-013>016-020>023-029>032-010100-
WESTERN PENNSYLVANIA

CITY           SKY/WX    TMP DP  RH WIND       PRES   REMARKS
ERIE           CLEAR     72  53  51 S3        30.07S
MEADVILLE      CLEAR     67  55  65 CALM      30.11R
FRANKLIN*      CLEAR     70  54  56 CALM      30.13S
NEW CASTLE     FAIR      73  63  71 CALM      30.10S
BEAVER COUNTY  NOT AVBL
BUTLER*        CLEAR     72  61  68 CALM      30.13R
PITTSBURGH INT PTCLDY    74  59  59 SW3       30.10S
PITTSBURGH     PTCLDY    73  59  61 W3        30.10S
INDIANA*       PTCLDY    70  64  83 CALM      30.16S
LATROBE        PTCLDY    73  64  73 SW6       30.12S
WASHINGTON CO* CLEAR     72  63  73 SW3       30.12S
$$

PAZ004>006-010>012-017>019-024>028-033>037-041-042-045-046-049>053-010100-
CENTRAL PENNSYLVANIA

CITY           SKY/WX    TMP DP  RH WIND       PRES   REMARKS
BRADFORD       CLEAR     68  52  56 CALM      30.13R
DUBOIS         CLEAR     69  60  73 CALM      30.13R
CLEARFIELD     CLOUDY    70  61  73 CALM      30.13R
JOHNSTOWN      CLEAR     69  56  62 W5        30.16R
ALTOONA        PTCLDY    72  61  68 SW3       30.14R
STATE COLLEGE  CLEAR     66  63  88 CALM      30.12R
WILLIAMSPORT   PTCLDY    74  62  66 CALM      30.08R
SELINSGROVE    PTCLDY    67  65  93 CALM      30.10S FOG
FT INDIANTOWN  PTCLDY    74  65  74 N2        30.10S
CAPITAL CITY   PTCLDY    76  62  62 S6        30.09R
HARRISBURG     PTCLDY    76  66  71 CALM      30.09
YORK           CLEAR     73  64  73 CALM      30.10R
$$

PAZ038>040-043-044-047-048-054-055-060>062-067>071-010100-
EASTERN PENNSYLVANIA

CITY           SKY/WX    TMP DP  RH WIND       PRES   REMARKS
SCRANTON       CLEAR     75  56  51 SW7       30.12R
MOUNT POCONO   CLOUDY    69  58  67 W7        30.16S
ALLENTOWN      PTCLDY    75  59  57 CALM      30.11R
QUAKERTOWN*    CLEAR     75  64  69 CALM      30.13R
READING        CLEAR     77  62  59 CALM      30.09R
LANCASTER      PTCLDY    78  58  49 SW6       30.10R
COATESVILLE    CLEAR     75  63  64 CALM      30.13R
POTTSTOWN      CLEAR     79  61  53 S5        30.12R
BLUE BELL      CLEAR     79  61  53 SW3       30.10S
DOYLESTOWN     CLEAR     77  60  55 VRB3      30.10R
WILLOW GROVE   NOT AVBL
NORTH PHILA    PTCLDY    81  57  43 SW5       30.12R
PHILADELPHIA   MOCLDY    81  63  54 S10       30.11R
$$



USA.gov is the U.S. government's official web portal to all federal, state and local government web resources and services.